Flag for France Weather past 2 weeks in Royan, France

Now
55 °F

Fog.


Feels Like: 55 °F
Forecast: 57 / 70 °F
Wind: No wind

Location: Cognac Airport

Current Time: Oct 25, 2014 at 11:15:06 PM

Latest Report: Oct 25, 2014 at 10:30 PM


Visibility: 0 mi

Pressure: 30.21 "Hg

Humidity: 94%

Dew point: 54 °F

Location of RoyanLocation

Historic Weather in Royan — Graph

°F

Royan temperature yesterday

Maximum temperature yesterday: 66 °F (at 3:30 PM)
Minimum temperature yesterday: 43 °F (at 6:30 AM)
Average temperature yesterday: 54 °F

Past Weeks' High & Low Weather Summary

 TemperatureHumidityPressure
High81 °F (Oct 18, 3:30 PM)100% (Oct 11, 2:00 AM)30.48 "Hg (Oct 11, 2:00 AM)
Low37 °F (Oct 23, 8:30 AM)39% (Oct 12, 3:30 PM)29.56 "Hg (Oct 12, 8:30 AM)
Average61 °F79%30.00 "Hg
* Reported Oct 10 10:00 PM — Oct 25 10:00 PM, Royan, Weather by CustomWeather, © 2014

Note: Actual official high and low records may vary slightly from our data, if they occured in-between our weather recording intervals... More about our weather records

Advertising

Royan weather history for previous 24 hours

 ConditionsComfort  
Time TempWeatherWind HumidityBarometerVisibility
10:00 PM
Oct 25
57 °FFog.2 mph94%30.21 "Hg0 mi
9:30 PM59 °FFog.2 mph94%30.21 "Hg0 mi
9:00 PM59 °FFog.2 mph94%30.21 "Hg0 mi
8:30 PM59 °FFog.No wind94%30.18 "Hg0 mi
8:00 PM59 °FFog.No wind94%30.18 "Hg1 mi
7:30 PM61 °FPassing clouds.No wind94%30.18 "HgN/A
7:00 PM63 °FScattered clouds.3 mph88%30.18 "HgN/A
6:30 PM64 °FScattered clouds.3 mph88%30.15 "HgN/A
6:00 PM64 °FScattered clouds.2 mph88%30.15 "HgN/A
5:30 PM64 °FPartly sunny.5 mph88%30.15 "HgN/A
5:00 PM63 °FPartly sunny.3 mph94%30.15 "HgN/A
4:30 PM63 °FOvercast.3 mph88%30.15 "HgN/A
4:00 PM63 °FPartly sunny.3 mph88%30.15 "HgN/A
3:30 PM61 °FMostly cloudy.3 mph94%30.15 "Hg4 mi
3:00 PM61 °FMostly cloudy.5 mph88%30.15 "HgN/A
2:30 PM63 °FLight rain. Mostly cloudy.5 mph77%30.15 "Hg4 mi
2:00 PM63 °FLight rain. Partly sunny.3 mph77%30.15 "HgN/A
1:30 PM63 °FLight rain. Partly sunny.2 mph73%30.15 "HgN/A
1:00 PM61 °FCloudy.3 mph72%30.15 "HgN/A
12:30 PM61 °FOvercast.3 mph72%30.15 "HgN/A
12:00 PM59 °FOvercast.3 mph72%30.15 "HgN/A
11:30 AM59 °FMostly cloudy.2 mph77%30.15 "HgN/A
11:00 AM57 °FClear.No wind82%30.15 "HgN/A
10:30 AM57 °FClear.2 mph82%30.12 "HgN/A
10:00 AM55 °FPassing clouds.No wind82%30.12 "HgN/A
9:30 AM54 °FClear.No wind88%30.12 "HgN/A
9:00 AM52 °FClear.No wind88%30.12 "HgN/A
8:30 AM52 °FClear.No wind88%30.09 "HgN/A
8:00 AM52 °FClear.No wind88%30.09 "HgN/A
7:30 AM52 °FMostly cloudy.No wind88%30.09 "HgN/A
7:00 AM52 °FClear.No wind88%30.09 "HgN/A
6:30 AM52 °FMostly cloudy.No wind94%30.09 "HgN/A
6:00 AM52 °FClear.No wind94%30.09 "HgN/A
5:30 AM52 °FClear.No wind88%30.09 "HgN/A
5:00 AM52 °FClear.No wind88%30.09 "HgN/A
4:30 AM52 °FClear.1 mph94%30.09 "HgN/A
4:00 AM52 °FClear.2 mph88%30.09 "HgN/A
3:30 AM52 °FClear.3 mph88%30.09 "HgN/A
3:00 AM52 °FClear.2 mph94%30.09 "HgN/A
2:30 AM52 °FClear.1 mph88%30.09 "HgN/A
2:00 AM52 °FClear.No wind88%30.09 "HgN/A
1:30 AM52 °FClear.No wind88%30.09 "HgN/A
1:00 AM52 °FClear.No wind94%30.09 "HgN/A
12:30 AM52 °FClear.No wind88%30.09 "HgN/A
12:00 AM54 °FClear.No wind82%30.09 "HgN/A
11:30 PM
Oct 24
54 °FClear.No wind88%30.09 "HgN/A
11:00 PM55 °FClear.No wind82%30.09 "HgN/A
Weather by CustomWeather, © 2014

See weather overviewHow to use our weather pages